星链-30910 (STARLINK-30910 )

导读 | 星芒AI

STARLINK-30910 是 SpaceX Starlink 卫星互联网项目中的第 30910 颗卫星,属于低轨卫星群的一部分。该卫星旨在为全球用户提供高速、低延迟的互联网服务,特别是在网络基础设施薄弱的地区。它采用先进的推进和通信技术,具备自主避障能力,以确保运行安全。作为 Starlink 计划的组成部分,该卫星有助于扩大全球互联网覆盖范围,支持远程教育、医疗和商业应用。

基本信息
目录编号:
58376
目录名称:
STARLINK-30910
国际标识:
2023-178C
轨道中心:
EARTH
卫星名称:
星链-30910
卫星全名:
星链-30910 (STARLINK-30910 )
卫星状态:
在轨 (已飞行711 天)
发射日期:
2023-11-20 UTC
国别 :
美国 (US)
星等 :
--
轨道信息
数据来源 国际轨道数据
星历时间: 2025-10-31T10:50:10+0800
10小时前
查看轨道信息
半长轴: 6853.427km
偏心率: 0.0001598
轨道倾角: 53.161°
近地点辐角 99.494°
升交点赤经 242.912°
平近点角 260.625°
近地点: 474.196km
远地点: 476.388km
周期: 94.107分钟
每日圈数: 15.30175
详细信息
固有亮度:
5
最大亮度:
0.3
卫星平台:
Starlink v2.0 mini
覆盖范围:
全球
运营商:
太空探索技术公司
运营商所在国:
美国
制造商(研发单位):
太空探索技术公司
制造商所在国:
美国
使用方式:
暂无
卫星简介
星链(Starlink)计划是由太空探索技术公司(SpaceX)提出的一个巨型低轨卫星互联网星座项目,计划在2019年至2024年间在太空搭建由约1.2万颗卫星组成的“星链”网络,其中1584颗将部署在地球上空550千米处的近地轨道,并从2020年开始工作。该卫星仍在工作。
2D轨道图
3D轨道图
轨道高度分析图
轨道倾角分析图
轨道综合分析图
查看轨道综合分析图